This demonstration page uses our WeatherBlox Daily Observations layout. Learn more.

Hourly Observations for October 27, 2015

Temp ( °F °C ) Dew Point ( °F °C ) Humidity (%) Winds ( mph kmh ) Pressure ( in mb ) Visibility ( mi km ) Precip ( " mm )
12:15 am 00:15 Partly Cloudy 47 8.3 33 0.6 59 59 SE 10 17 30.06 1018 10 16.0934 0 0
12:35 am 00:35 Partly Cloudy 47 8.1 33 0.6 59 59 SE 10 17 30.06 1018 10 16.0934 0 0
12:55 am 00:55 Mostly Cloudy 47 8.1 33 0.7 60 60 SE 9 15 30.06 1018 10 16.0934 0 0
1:15 am 01:15 Cloudy 46 8 33 0.8 61 61 SE 10 17 30.03 1017 10 16.0934 0 0
1:35 am 01:35 Cloudy 46 8 34 1 62 62 SSE 7 11 30.03 1017 10 16.0934 0 0
1:55 am 01:55 Cloudy 47 8.1 34 1.1 62 62 SSE 8 13 30.03 1017 10 16.0934 0 0
2:15 am 02:15 Cloudy 46 8 34 1.2 63 63 SSE 9 15 30.03 1017 10 16.0934 0 0
2:35 am 02:35 Cloudy 46 8 34 1.3 63 63 SE 8 13 30.03 1017 10 16.0934 0 0
2:55 am 02:55 Cloudy 46 7.8 35 1.4 64 64 SE 7 11 30.03 1017 10 16.0934 0 0
3:15 am 03:15 Cloudy 46 7.8 35 1.5 65 65 SE 9 15 30.03 1017 10 16.0934 0 0
3:35 am 03:35 Cloudy 46 7.7 35 1.5 65 65 SE 8 13 30 1016 10 16.0934 0 0
3:55 am 03:55 Cloudy 46 7.8 35 1.5 65 65 SSE 9 15 30 1016 10 16.0934 0 0
4:15 am 04:15 Cloudy 47 8.1 35 1.4 63 63 SSE 9 15 30 1016 10 16.0934 0 0
4:35 am 04:35 Cloudy 47 8.3 35 1.4 62 62 SSE 8 13 30 1016 10 16.0934 0 0
4:55 am 04:55 Mostly Cloudy 47 8.2 34 1.3 62 62 S 6 9 30 1016 10 16.0934 0 0
5:15 am 05:15 Cloudy with Light Rain 46 8 35 1.6 64 64 S 3 6 30 1016 10 16.0934 0 0
5:35 am 05:35 Cloudy with Light Rain 46 7.5 37 2.8 72 72 S 6 9 30 1016 10 16.0934 0 0
5:55 am 05:55 Cloudy with Light Rain 45 7 38 3.6 79 79 S 3 6 29.97 1015 10 16.0934 0 0
6:15 am 06:15 Cloudy with Light Rain 45 7 39 4 81 81 S 5 7 29.97 1015 10 16.0934 0 0
6:35 am 06:35 Cloudy with Light Rain 44 6.9 39 4 82 82 S 3 6 29.97 1015 10 16.0934 0.01 0.254
6:55 am 06:55 Cloudy with Light Rain 44 6.8 40 4.5 85 85 SSE 5 7 29.97 1015 10 16.0934 0.01 0.254
7:15 am 07:15 Cloudy with Drizzle 44 6.7 39 4.1 84 84 SSE 6 9 29.97 1015 10 16.0934 0 0
7:35 am 07:35 Cloudy with Light Rain 44 6.5 39 4.1 85 85 SE 6 9 29.97 1015 10 16.0934 0 0
7:55 am 07:55 Cloudy 44 6.5 40 4.4 87 87 SE 3 6 29.97 1015 10 16.0934 0 0
8:15 am 08:15 Cloudy with Rain 44 6.5 40 4.5 87 87 SE 6 9 29.97 1015 10 16.0934 0.01 0.254
8:35 am 08:35 Cloudy with Rain 43 6.3 40 4.6 89 89 SSE 6 9 29.97 1015 7 11.26538 0.03 0.762
8:55 am 08:55 Cloudy with Light Rain 43 6.3 40 4.7 90 90 Calm 29.97 1015 10 16.0934 0.04 1.016
9:15 am 09:15 Cloudy with Rain 43 6.3 40 4.6 89 89 Calm 29.97 1015 7 11.26538 0.02 0.508
9:35 am 09:35 Cloudy with Light Rain 43 6.2 41 5 92 92 ESE 3 6 29.97 1015 10 16.0934 0.04 1.016
9:55 am 09:55 Cloudy with Light Drizzle 43 6.3 41 5.1 92 92 ESE 5 7 29.97 1015 10 16.0934 0.04 1.016
10:15 am 10:15 Cloudy with Light Rain 44 6.5 41 5.1 91 91 ESE 7 11 29.94 1014 10 16.0934 0 0
10:35 am 10:35 Cloudy with Light Drizzle 44 6.6 41 5.2 91 91 SE 8 13 29.94 1014 10 16.0934 0 0
10:55 am 10:55 Cloudy with Light Drizzle 44 6.8 42 5.4 91 91 ESE 3 6 29.94 1014 10 16.0934 0 0
11:15 am 11:15 Cloudy 45 7 42 5.4 90 90 SE 5 7 29.94 1014 10 16.0934 0 0
11:35 am 11:35 Cloudy 45 7.4 43 6 91 91 SE 8 13 29.91 1013 10 16.0934 0 0
11:55 am 11:55 Cloudy 46 8 43 6.3 89 89 SSE 7 11 29.91 1013 10 16.0934 0 0
12:15 pm 12:15 Mostly Cloudy 47 8.5 44 6.8 89 89 SSE 7 11 29.88 1012 10 16.0934 0 0
12:35 pm 12:35 Partly Cloudy 49 9.4 45 7.4 87 87 S 5 7 29.88 1012 10 16.0934 0 0
12:55 pm 12:55 Sunny 53 11.5 48 9 85 85 S 8 13 29.83 1010 10 16.0934 0 0
1:15 pm 13:15 Sunny 54 12.2 48 9 81 81 S 9 15 29.8 1009 10 16.0934 0 0
1:35 pm 13:35 Sunny 54 12.2 48 8.8 80 80 SSE 9 15 29.77 1008 10 16.0934 0 0
1:55 pm 13:55 Sunny 58 14.5 46 8 65 65 S 8 13 29.74 1007 10 16.0934 0 0
2:15 pm 14:15 Sunny 59 14.8 44 6.7 59 59 S 10 17 29.74 1007 10 16.0934 0 0
2:35 pm 14:35 Sunny 60 15.3 43 6.2 55 55 SSW 10 17 29.74 1007 10 16.0934 0 0
2:55 pm 14:55 Sunny 60 15.7 42 5.8 52 52 SSW 10 17 29.74 1007 10 16.0934 0 0
3:15 pm 15:15 Sunny 61 16.2 40 4.6 46 46 SSW 9 15 29.74 1007 10 16.0934 0 0
3:35 pm 15:35 Sunny 62 16.7 40 4.2 44 44 SSW 7 11 29.74 1007 10 16.0934 0 0
3:55 pm 15:55 Sunny 62 16.6 43 5.9 49 49 SSW 6 9 29.74 1007 10 16.0934 0 0
4:15 pm 16:15 Sunny 62 16.5 45 7.4 55 55 SSW 5 7 29.74 1007 10 16.0934 0 0
4:35 pm 16:35 Sunny 62 16.8 46 7.6 55 55 SW 6 9 29.74 1007 10 16.0934 0 0
4:55 pm 16:55 Sunny 62 16.5 45 7 54 54 SW 6 9 29.71 1006 10 16.0934 0 0
5:15 pm 17:15 Sunny 62 16.5 45 7.1 54 54 SSW 8 13 29.71 1006 10 16.0934 0 0
5:35 pm 17:35 Sunny 61 16.1 45 7 55 55 SW 6 9 29.74 1007 10 16.0934 0 0
5:55 pm 17:55 Sunny 59 15 46 7.5 61 61 SW 3 6 29.74 1007 10 16.0934 0 0
6:15 pm 18:15 Sunny 59 15 45 7.4 61 61 SSW 5 7 29.74 1007 10 16.0934 0 0
6:35 pm 18:35 Sunny 56 13.6 45 7.1 65 65 S 3 6 29.74 1007 10 16.0934 0 0
6:55 pm 18:55 Clear 54 12 44 6.7 70 70 SSE 5 7 29.77 1008 10 16.0934 0 0
7:15 pm 19:15 Clear 53 11.9 44 6.6 70 70 S 5 7 29.77 1008 10 16.0934 0 0
7:35 pm 19:35 Clear 53 11.4 43 6.3 71 71 S 3 6 29.77 1008 10 16.0934 0 0
7:55 pm 19:55 Clear 51 10.8 43 6.3 74 74 S 5 7 29.77 1008 10 16.0934 0 0
8:15 pm 20:15 Clear 50 10 43 6.2 77 77 S 5 7 29.8 1009 10 16.0934 0 0
8:35 pm 20:35 Clear 49 9.5 43 6 79 79 Calm 29.8 1009 10 16.0934 0 0
8:55 pm 20:55 Clear 47 8.5 42 5.8 83 83 Calm 29.8 1009 10 16.0934 0 0
9:15 pm 21:15 Clear 44 6.6 40 4.5 87 87 Calm 29.83 1010 10 16.0934 0 0
9:35 pm 21:35 Clear 42 5.8 40 4.2 90 90 E 3 6 29.83 1010 10 16.0934 0 0
9:55 pm 21:55 Clear 47 8.2 44 6.5 89 89 Calm 29.8 1009 10 16.0934 0 0
10:15 pm 22:15 Clear 44 6.9 41 5.2 89 89 NW 7 11 29.83 1010 10 16.0934 0 0
10:35 pm 22:35 Clear 46 7.9 43 6 88 88 N 13 20 29.83 1010 10 16.0934 0 0
10:55 pm 22:55 Clear 46 8 43 5.9 87 87 N 18 30 29.83 1010 10 16.0934 0 0
11:15 pm 23:15 Clear 46 7.9 42 5.8 87 87 N 18 30 29.85 1011 10 16.0934 0 0
11:35 pm 23:35 Clear 47 8.1 43 6 87 87 N 17 28 29.85 1011 10 16.0934 0 0
11:55 pm 23:55 Mostly Cloudy 48 8.7 43 6.2 84 84 NNW 15 24 29.88 1012 10 16.0934 0 0

Powered by AerisWeather